FW2285 Weather Reports


Display with metric or nautical units.
time (UTC)temp
F
wind
direction
speed
MPH
gust
MPH
rain 1hr
in
rain 24hr
in
rain mn
in
humidity
%
barometer
mb
20240526050035 72 192 3.0 10.0 0.00 0.00 0.00 45 1002.7
20240526044526 73 133 3.0 14.0 0.00 0.00 0.00 45 1002.9
20240526043027 75 79 5.0 10.0 0.00 0.00 0.00 49 1002.8
20240526041525 75 107 1.0 7.0 0.00 0.00 0.00 53 1002.0
20240526040024 74 123 2.0 10.0 0.00 0.00 0.00 52 1001.9
20240526034522 74 103 2.0 8.0 0.00 0.00 0.00 51 1002.6
20240526033028 74 128 2.0 8.0 0.00 0.00 0.00 50 1004.1
20240526031520 74 115 2.0 10.0 0.00 0.00 0.00 49 1003.8
20240526030019 74 82 4.0 11.0 0.00 0.00 0.00 48 1003.3
20240526024518 75 100 4.0 9.0 0.00 0.00 0.00 48 1003.4
20240526023017 75 88 2.0 10.0 0.00 0.00 0.00 47 1004.0
20240526021514 75 119 1.0 8.0 0.00 0.00 0.00 47 1004.3
20240526020018 75 119 2.0 9.0 0.00 0.00 0.00 46 1004.6
20240526014521 76 98 2.0 9.0 0.00 0.00 0.00 45 1004.4
20240526013013 76 116 2.0 8.0 0.00 0.00 0.00 43 1004.2
20240526011512 77 113 1.0 8.0 0.00 0.00 0.00 42 1004.5
20240526010009 77 122 2.0 12.0 0.00 0.00 0.00 41 1004.6
20240526004508 77 115 2.0 11.0 0.00 0.00 0.00 40 1004.4
20240526003006 78 119 3.0 11.0 0.00 0.00 0.00 38 1004.8
20240526001504 78 121 2.0 12.0 0.00 0.00 0.00 37 1004.8
20240526000002 79 70 2.0 9.0 0.00 0.00 0.00 35 1005.1
20240525234600 79 116 2.0 11.0 0.00 0.00 0.00 35 1005.5
20240525233101 80 100 3.0 9.0 0.00 0.00 0.00 31 1005.8
20240525231600 79 142 3.0 10.0 0.00 0.00 0.00 30 1006.1
20240525230116 80 90 4.0 10.0 0.00 0.00 0.00 27 1006.3
20240525224609 80 138 4.0 9.0 0.00 0.00 0.00 28 1006.3
20240525223053 81 104 1.0 8.0 0.00 0.00 0.00 29 1006.6
20240525221552 80 138 2.0 12.0 0.00 0.00 0.00 28 1006.5
20240525220050 81 92 3.0 9.0 0.00 0.00 0.00 28 1007.1
20240525214548 80 112 1.0 8.0 0.00 0.00 0.00 34 1007.1
20240525213048 80 72 2.0 9.0 0.00 0.00 0.00 32 1007.3
20240525211546 81 142 2.0 7.0 0.00 0.00 0.00 31 1007.7
20240525210044 80 120 3.0 10.0 0.00 0.00 0.00 31 1008.0
20240525204545 80 113 2.0 7.0 0.00 0.00 0.00 30 1008.2
20240525203041 80 108 1.0 9.0 0.00 0.00 0.00 33 1008.5
20240525201539 80 134 1.0 6.0 0.00 0.00 0.00 30 1009.0
20240525200038 80 128 1.0 5.0 0.00 0.00 0.00 30 1009.2
20240525194534 78 136 1.0 5.0 0.00 0.00 0.00 33 1009.5
20240525193035 78 46 2.0 7.0 0.00 0.00 0.00 31 1009.8
20240525191528 78 118 1.0 7.0 0.00 0.00 0.00 31 1009.9
20240525190035 77 122 2.0 6.0 0.00 0.00 0.00 31 1010.0
20240525184527 77 118 2.0 6.0 0.00 0.00 0.00 33 1010.1
20240525183027 76 52 3.0 7.0 0.00 0.00 0.00 31 1010.4
20240525181533 76 38 3.0 9.0 0.00 0.00 0.00 31 1010.4
20240525180029 75 120 3.0 8.0 0.00 0.00 0.00 33 1010.9
20240525174520 75 46 2.0 8.0 0.00 0.00 0.00 36 1011.2
20240525173025 74 63 2.0 7.0 0.00 0.00 0.00 37 1011.4
20240525171512 74 56 1.0 9.0 0.00 0.00 0.00 35 1011.4
20240525170009 73 126 2.0 7.0 0.00 0.00 0.00 39 1011.7
20240525164606 73 118 1.0 8.0 0.00 0.00 0.00 36 1011.9
20240525163008 71 98 1.0 6.0 0.00 0.00 0.00 38 1012.2
20240525161503 71 111 1.0 6.0 0.00 0.00 0.00 42 1012.3
20240525160109 70 126 1.0 6.0 0.00 0.00 0.00 44 1012.4
20240525154608 69 130 2.0 8.0 0.00 0.00 0.00 44 1012.7
20240525153100 68 138 2.0 9.0 0.00 0.00 0.00 44 1012.7
20240525151554 67 133 2.0 9.0 0.00 0.00 0.00 45 1012.8
20240525150059 67 113 2.0 8.0 0.00 0.00 0.00 47 1013.1
20240525144605 66 128 3.0 8.0 0.00 0.00 0.00 47 1013.2
20240525143046 65 53 2.0 9.0 0.00 0.00 0.00 49 1013.3
20240525141547 64 92 2.0 10.0 0.00 0.00 0.00 50 1013.2
20240525140141 64 96 3.0 9.0 0.00 0.00 0.00 52 1013.2
20240525134540 63 113 2.0 7.0 0.00 0.00 0.00 55 1013.3
20240525133036 62 107 2.0 11.0 0.00 0.00 0.00 54 1013.2
20240525131532 61 97 1.0 9.0 0.00 0.00 0.00 56 1013.2
20240525130029 60 109 0.0 4.0 0.00 0.01 0.00 58 1013.1
20240525124526 59 123 0.0 3.0 0.00 0.01 0.00 59 1013.3
20240525123025 58 128 0.0 4.0 0.00 0.01 0.00 60 1013.3
20240525121524 56 311 0.0 3.0 0.00 0.01 0.00 64 1013.4
20240525120026 53 312 0.0 1.0 0.00 0.01 0.00 72 1013.5
20240525114522 50 312 0.0 0.0 0.00 0.01 0.00 73 1013.6
20240525113022 48 312 0.0 0.0 0.00 0.01 0.00 73 1013.6
20240525111520 47 312 0.0 0.0 0.00 0.01 0.00 72 1013.6
20240525110019 48 312 0.0 0.0 0.00 0.01 0.00 72 1013.8
20240525104518 48 312 0.0 0.0 0.00 0.01 0.00 72 1013.6
20240525103016 48 312 0.0 0.0 0.00 0.01 0.00 72 1013.4
20240525101515 48 312 0.0 0.0 0.00 0.01 0.00 71 1013.4
20240525100016 48 312 0.0 0.0 0.00 0.01 0.00 70 1013.4
20240525094523 49 312 0.0 0.0 0.00 0.01 0.00 69 1013.3
20240525093011 49 312 0.0 0.0 0.00 0.01 0.00 68 1013.2
20240525091517 49 312 0.0 0.0 0.00 0.01 0.00 66 1013.1
20240525090005 50 312 0.0 0.0 0.00 0.01 0.00 65 1012.9
20240525084503 50 312 0.0 0.0 0.00 0.01 0.00 64 1012.8
20240525083100 51 312 0.0 0.0 0.00 0.01 0.00 63 1012.6
20240525081557 52 312 0.0 0.0 0.00 0.01 0.00 63 1012.6
20240525080053 54 312 0.0 1.0 0.00 0.01 0.00 63 1012.2
20240525074551 55 312 0.0 2.0 0.00 0.01 0.00 62 1012.1
20240525073053 55 312 0.0 1.0 0.00 0.01 0.00 63 1012.0
20240525071549 56 312 0.0 2.0 0.00 0.01 0.00 61 1012.1
20240525070047 57 312 0.0 1.0 0.00 0.01 0.00 60 1012.0
20240525064547 56 312 0.0 0.0 0.00 0.01 0.00 61 1012.1
20240525063047 57 312 0.0 1.0 0.00 0.01 0.00 61 1012.0
20240525061546 57 312 0.0 0.0 0.00 0.01 0.00 60 1012.2
20240525060045 56 312 0.0 0.0 0.00 0.01 0.00 62 1012.1
20240525054552 56 312 0.0 0.0 0.00 0.01 0.00 63 1012.2
20240525053043 57 312 0.0 0.0 0.00 0.01 0.00 62 1012.1
20240525051539 58 312 0.0 0.0 0.00 0.01 0.00 61 1011.9